Total_Precipitation_Accumulation
1.11 1.09 1.08 0.98 0.94 0.96 1.02 1.20 1.50 1.32 0.82 0.61 0.60 0.64 0.71 0.81 0.90 0.87 0.82 0.89 0.98 1.11 1.24 1.33 1.41 1.63 2.04 2.72 3.66 4.67 4.90 4.20 3.36 2.84 2.79 3.24 3.70 4.17
1.18 1.20 1.17 1.13 1.12 1.07 1.08 1.13 1.30 1.45 1.12 0.59 0.53 0.59 0.73 0.85 1.00 1.00 0.99 1.08 1.05 1.12 1.21 1.29 1.33 1.45 1.67 2.06 2.66 3.58 4.52 4.71 4.13 3.49 3.19 3.27 3.59 3.93
1.22 1.29 1.26 1.22 1.28 1.23 1.16 1.13 1.16 1.30 1.32 0.73 0.53 0.56 0.78 0.99 1.05 1.08 1.12 1.08 1.03 1.11 1.17 1.25 1.30 1.38 1.55 1.79 2.13 2.71 3.60 4.39 4.58 4.21 3.83 3.57 3.55 3.66
1.26 1.28 1.31 1.31 1.34 1.32 1.31 1.23 1.13 1.10 1.22 1.02 0.70 0.69 0.83 1.01 1.08 1.13 1.20 1.18 1.10 1.17 1.21 1.30 1.38 1.46 1.58 1.71 1.91 2.19 2.81 3.52 4.18 4.39 4.15 3.77 3.59 3.68
1.52 1.49 1.43 1.42 1.43 1.37 1.38 1.33 1.22 1.12 1.12 1.15 0.92 0.80 0.86 0.98 1.12 1.21 1.25 1.24 1.24 1.30 1.26 1.29 1.42 1.53 1.61 1.66 1.77 1.96 2.22 2.62 3.21 3.92 4.16 3.95 3.69 3.64
1.61 1.63 1.60 1.59 1.54 1.49 1.50 1.45 1.41 1.42 1.36 1.35 1.19 1.00 0.96 0.99 1.19 1.39 1.49 1.35 1.32 1.32 1.36 1.33 1.43 1.51 1.57 1.56 1.52 1.66 1.90 2.25 2.80 3.41 3.92 4.04 3.72 3.56
1.46 1.47 1.55 1.71 1.78 1.83 1.86 1.75 1.73 1.84 1.80 1.71 1.50 1.30 1.17 1.21 1.33 1.42 1.65 1.61 1.51 1.43 1.45 1.38 1.38 1.36 1.38 1.45 1.51 1.63 1.80 1.96 2.29 2.83 3.37 3.76 3.78 3.62
1.37 1.28 1.28 1.49 1.59 1.74 1.89 1.89 1.95 2.12 2.21 2.13 1.84 1.58 1.30 1.25 1.37 1.60 1.82 2.01 1.93 1.53 1.55 1.59 1.52 1.54 1.43 1.39 1.52 1.60 1.74 1.88 2.03 2.37 2.80 3.21 3.47 3.61
1.22 1.21 1.18 1.20 1.34 1.30 1.49 1.62 1.66 1.84 2.08 2.19 2.15 1.70 1.43 1.33 1.62 1.83 1.88 2.01 1.90 1.66 1.75 1.98 1.79 1.71 1.57 1.52 1.56 1.48 1.58 1.73 1.83 2.05 2.36 2.74 3.10 3.35
1.03 1.02 1.03 1.06 1.17 1.34 1.44 1.45 1.38 1.46 1.74 1.94 2.11 1.92 1.70 1.66 1.92 2.22 2.35 2.36 2.15 1.93 1.90 2.27 2.07 1.91 1.80 1.67 1.58 1.43 1.47 1.57 1.68 1.82 2.01 2.32 2.65 2.90
0.97 0.96 0.93 0.93 1.23 1.48 1.44 1.37 1.24 1.24 1.42 1.71 1.93 2.03 2.10 2.22 2.39 2.69 2.87 2.84 2.67 2.28 2.05 2.24 2.27 2.17 2.03 1.91 1.71 1.52 1.41 1.44 1.51 1.62 1.71 1.88 2.16 2.52
0.99 0.95 1.06 1.11 1.34 1.44 1.35 1.40 1.43 1.27 1.20 1.27 1.38 1.50 1.58 1.76 2.12 2.40 2.66 2.83 2.78 2.70 2.23 2.20 2.33 2.39 2.62 2.20 1.78 1.45 1.30 1.34 1.39 1.47 1.54 1.61 1.82 1.98
1.13 1.06 1.01 1.18 1.24 1.31 1.37 1.38 1.52 1.40 1.28 1.37 1.37 1.32 1.35 1.49 1.69 1.99 2.36 2.70 2.89 2.77 2.27 2.35 2.54 2.31 2.50 2.38 1.98 1.59 1.28 1.22 1.24 1.31 1.41 1.47 1.59 1.69
1.12 1.00 1.00 1.17 1.21 1.29 1.31 1.42 1.52 1.47 1.36 1.38 1.32 1.28 1.31 1.39 1.52 1.73 2.00 2.26 2.43 2.48 2.23 2.27 2.70 2.44 2.32 2.14 2.00 1.81 1.45 1.22 1.12 1.14 1.20 1.45 1.58 1.65
1.27 1.29 1.22 1.26 1.26 1.20 1.26 1.32 1.33 1.30 1.37 1.38 1.27 1.18 1.19 1.29 1.38 1.51 1.67 1.91 2.09 2.21 2.22 2.15 2.35 2.38 2.35 2.22 1.87 1.64 1.57 1.45 1.15 1.11 1.19 1.24 1.33 1.47
1.40 1.41 1.37 1.34 1.26 1.21 1.20 1.15 1.12 1.21 1.29 1.28 1.16 1.06 1.05 1.17 1.32 1.44 1.60 1.79 2.06 2.17 2.17 2.18 2.21 2.39 2.41 2.00 1.76 1.56 1.38 1.56 1.35 1.14 1.19 1.26 1.26 1.25
1.53 1.44 1.33 1.31 1.31 1.23 1.14 1.07 1.06 1.14 1.18 1.11 1.10 1.08 1.08 1.16 1.24 1.35 1.59 1.75 1.96 1.99 2.10 2.27 2.29 2.29 2.33 2.24 2.06 1.60 1.29 1.24 1.22 1.15 1.21 1.37 1.44 1.36
1.57 1.44 1.23 1.15 1.15 1.12 1.10 1.07 1.03 1.05 1.05 1.05 1.11 1.13 1.15 1.20 1.24 1.30 1.51 1.71 1.81 1.81 1.90 2.09 2.24 2.33 2.46 2.56 2.30 1.77 1.40 1.28 1.23 1.16 1.18 1.38 1.61 1.53
1.33 1.22 1.11 1.06 1.01 0.98 1.02 1.00 0.98 0.97 1.01 1.06 1.08 1.07 1.10 1.15 1.20 1.27 1.39 1.53 1.63 1.69 1.76 1.86 2.05 2.24 2.38 2.51 2.55 2.09 1.70 1.47 1.38 1.39 1.33 1.35 1.53 1.57
1.12 1.09 1.09 1.05 1.01 1.00 1.01 1.02 0.98 0.98 1.05 1.10 1.10 1.05 1.07 1.15 1.19 1.21 1.27 1.40 1.51 1.57 1.65 1.72 1.90 2.13 2.28 2.25 2.36 2.34 2.08 1.72 1.56 1.59 1.51 1.45 1.50 1.60
1.08 1.04 1.05 1.09 1.09 1.07 1.04 1.04 1.06 1.06 1.06 1.11 1.10 1.07 1.07 1.14 1.17 1.15 1.20 1.33 1.43 1.47 1.55 1.61 1.71 1.89 2.02 2.04 2.08 2.08 2.15 2.11 1.79 1.63 1.57 1.64 1.72 1.72
1.05 1.04 1.03 1.07 1.12 1.11 1.10 1.10 1.12 1.12 1.14 1.16 1.10 1.06 1.07 1.12 1.16 1.15 1.18 1.22 1.25 1.31 1.41 1.46 1.54 1.76 2.00 2.14 2.06 1.90 1.99 2.14 2.16 1.90 1.70 1.73 1.98 2.21
1.08 1.08 1.05 1.05 1.06 1.07 1.07 1.09 1.12 1.11 1.12 1.13 1.07 0.99 1.00 1.07 1.09 1.11 1.10 1.07 1.09 1.15 1.28 1.41 1.53 1.70 1.90 1.99 2.02 1.86 1.79 1.91 2.04 2.08 2.11 1.90 1.63 1.56